Tracking 28126 objects as of 2-Oct-2023
HD Live streaming from Space Station
objects crossing your sky now

STARLINK-5768

Track STARLINK-5768 now!
10-day predictions
STARLINK-5768 is classified as:


NORAD ID: 57145
Int'l Code: 2023-090AW
Perigee: 565.5 km
Apogee: 566.9 km
Inclination: 43.0 °
Period: 95.8 minutes
Semi major axis: 6937 km
RCS: Unknown
Launch date: June 23, 2023
Source: United States (US)
Launch site: AIR FORCE EASTERN TEST RANGE (AFETR)
Your satellite tracking list
Your tracking list is empty




NASA's NSSDC Master Catalog

Two Line Element Set (TLE):
1 57145U 23090AW  23274.74664973  .00001308  00000-0  11184-3 0  9990
2 57145  43.0016  57.2542 0001011 259.8472 100.2257 15.02544607 15550
Source of the keplerian elements: AFSPC